RYR62WX LIRA-LIEE

Flight info

Callsign RYR62WX
Flight time 0h 41m
Altitude 33000
Route ESINO DCT ROXAN DCT QUENN DCT ALEDI/N0339F190 M126 CAR
Aircraft B738/M-SADFGIJ1LRWYZ/SB1

Departure

Time 2026-04-27 10:15
Airport Ciampino–G. B. Pastine International Airport (LIRA)

Arrival

Time 2026-04-27 10:56
Airport Cagliari Elmas Airport (LIEE)
Time Latitude Longitude Altitude Speed Heading
2026-04-27 10:15 41.77548 12.36869 11832 ft 283 kts 286°
2026-04-27 10:15 41.78120 12.34220 12053 ft 309 kts 286°
2026-04-27 10:15 41.78743 12.31338 12278 ft 334 kts 286°
2026-04-27 10:15 41.79368 12.28288 12901 ft 343 kts 281°
2026-04-27 10:16 41.79352 12.25128 13699 ft 348 kts 258°
2026-04-27 10:16 41.78391 12.22092 14475 ft 354 kts 237°
2026-04-27 10:16 41.76699 12.19682 15215 ft 359 kts 220°
2026-04-27 10:16 41.74738 12.17593 16047 ft 362 kts 219°
2026-04-27 10:17 41.72729 12.15526 16751 ft 366 kts 219°
2026-04-27 10:17 41.70699 12.13434 17441 ft 370 kts 219°
2026-04-27 10:17 41.68654 12.11309 18135 ft 374 kts 220°
2026-04-27 10:17 41.66597 12.09151 18785 ft 378 kts 220°
2026-04-27 10:18 41.64529 12.06969 19397 ft 380 kts 220°
2026-04-27 10:18 41.62443 12.04766 20023 ft 383 kts 220°
2026-04-27 10:18 41.60350 12.02556 20650 ft 385 kts 220°
2026-04-27 10:18 41.58267 12.00358 21258 ft 388 kts 220°
2026-04-27 10:19 41.56142 11.98111 21850 ft 391 kts 219°
2026-04-27 10:19 41.53997 11.95841 22411 ft 395 kts 219°
2026-04-27 10:19 41.51833 11.93552 22991 ft 398 kts 219°
2026-04-27 10:19 41.49652 11.91249 23567 ft 401 kts 219°
2026-04-27 10:20 41.47456 11.88931 24079 ft 404 kts 219°
2026-04-27 10:20 41.45243 11.86598 24547 ft 407 kts 220°
2026-04-27 10:20 41.43016 11.84252 25014 ft 409 kts 220°
2026-04-27 10:20 41.40774 11.81892 25474 ft 412 kts 220°
2026-04-27 10:21 41.38519 11.79522 25952 ft 414 kts 220°
2026-04-27 10:21 41.36262 11.77151 26514 ft 413 kts 219°
2026-04-27 10:21 41.34013 11.74788 27130 ft 411 kts 219°
2026-04-27 10:21 41.31777 11.72440 27757 ft 408 kts 219°
2026-04-27 10:22 41.29550 11.70103 28354 ft 407 kts 220°
2026-04-27 10:22 41.27328 11.67773 28925 ft 406 kts 220°
2026-04-27 10:22 41.25118 11.65457 29545 ft 404 kts 220°
2026-04-27 10:22 41.22917 11.63153 30171 ft 402 kts 220°
2026-04-27 10:23 41.20724 11.60859 30650 ft 401 kts 220°
2026-04-27 10:23 41.18535 11.58571 31097 ft 400 kts 219°
2026-04-27 10:23 41.14141 11.53983 31179 ft 400 kts 219°
2026-04-27 10:24 41.09764 11.49422 31189 ft 400 kts 219°
2026-04-27 10:24 41.05381 11.44863 31191 ft 401 kts 219°
2026-04-27 10:25 41.00989 11.40303 31187 ft 401 kts 219°
2026-04-27 10:25 40.96591 11.35743 31180 ft 402 kts 219°
2026-04-27 10:26 40.92218 11.31218 31183 ft 402 kts 219°
2026-04-27 10:26 40.87813 11.26666 31183 ft 402 kts 219°
2026-04-27 10:27 40.83412 11.22127 31181 ft 401 kts 219°
2026-04-27 10:27 40.79010 11.17613 31178 ft 400 kts 218°
2026-04-27 10:28 40.74607 11.13115 31183 ft 400 kts 218°
2026-04-27 10:28 40.70204 11.08624 31182 ft 400 kts 218°
2026-04-27 10:29 40.65793 11.04129 31183 ft 400 kts 218°
2026-04-27 10:29 40.61383 10.99642 31183 ft 401 kts 218°
2026-04-27 10:30 40.56970 10.95160 31179 ft 401 kts 218°
2026-04-27 10:30 40.52546 10.90674 31183 ft 402 kts 218°
2026-04-27 10:31 40.48860 10.86942 31180 ft 402 kts 218°
2026-04-27 10:31 40.43701 10.81728 31180 ft 403 kts 218°
2026-04-27 10:32 40.39257 10.77245 31176 ft 403 kts 218°
2026-04-27 10:32 40.35532 10.73493 31176 ft 403 kts 218°
2026-04-27 10:33 40.31120 10.69055 31176 ft 402 kts 218°
2026-04-27 10:33 40.26686 10.64604 31177 ft 402 kts 218°
2026-04-27 10:34 40.22239 10.60145 30763 ft 403 kts 218°
2026-04-27 10:34 40.20020 10.57922 30301 ft 402 kts 218°
2026-04-27 10:34 40.17800 10.55702 29755 ft 401 kts 218°
2026-04-27 10:35 40.15588 10.53491 29220 ft 399 kts 218°
2026-04-27 10:35 40.13386 10.51291 28707 ft 398 kts 218°
2026-04-27 10:35 40.11188 10.49095 28138 ft 398 kts 218°
2026-04-27 10:35 40.08990 10.46900 27555 ft 398 kts 218°
2026-04-27 10:36 40.06790 10.44704 26968 ft 398 kts 218°
2026-04-27 10:36 40.04585 10.42505 26372 ft 399 kts 218°
2026-04-27 10:36 40.02374 10.40301 25769 ft 401 kts 218°
2026-04-27 10:36 40.00154 10.38091 25151 ft 402 kts 218°
2026-04-27 10:37 39.97926 10.35874 24513 ft 404 kts 218°
2026-04-27 10:37 39.95683 10.33645 23839 ft 407 kts 217°
2026-04-27 10:37 39.93417 10.31394 23097 ft 409 kts 218°
2026-04-27 10:37 39.91166 10.29161 22549 ft 405 kts 217°
2026-04-27 10:38 39.88932 10.26945 22003 ft 402 kts 217°
2026-04-27 10:38 39.86715 10.24750 21480 ft 399 kts 217°
2026-04-27 10:38 39.84516 10.22573 20963 ft 395 kts 218°
2026-04-27 10:38 39.82332 10.20412 20469 ft 392 kts 217°
2026-04-27 10:39 39.80164 10.18270 19955 ft 390 kts 217°
2026-04-27 10:39 39.78011 10.16144 19464 ft 387 kts 217°
2026-04-27 10:39 39.75873 10.14034 18960 ft 385 kts 217°
2026-04-27 10:39 39.73747 10.11938 18448 ft 384 kts 217°
2026-04-27 10:40 39.71622 10.09845 17882 ft 382 kts 217°
2026-04-27 10:40 39.69518 10.07773 17372 ft 379 kts 218°
2026-04-27 10:40 39.67425 10.05714 16851 ft 376 kts 218°
2026-04-27 10:40 39.65345 10.03668 16355 ft 373 kts 218°
2026-04-27 10:41 39.63312 10.01671 15879 ft 370 kts 218°
2026-04-27 10:41 39.61270 9.99668 15556 ft 366 kts 218°
2026-04-27 10:41 39.59254 9.97691 15303 ft 364 kts 218°
2026-04-27 10:41 39.57500 9.95306 15014 ft 370 kts 240°
2026-04-27 10:42 39.56671 9.92176 14797 ft 369 kts 262°
2026-04-27 10:42 39.56467 9.88879 14579 ft 366 kts 267°
2026-04-27 10:42 39.56358 9.85589 14336 ft 364 kts 268°
2026-04-27 10:42 39.56265 9.82315 14097 ft 363 kts 268°
2026-04-27 10:43 39.56168 9.79064 13819 ft 360 kts 268°
2026-04-27 10:43 39.56061 9.75821 13365 ft 357 kts 267°
2026-04-27 10:43 39.55948 9.72624 12886 ft 354 kts 267°
2026-04-27 10:43 39.55829 9.69462 12421 ft 350 kts 267°
2026-04-27 10:44 39.55707 9.66325 11983 ft 347 kts 267°
2026-04-27 10:44 39.55584 9.63212 11486 ft 345 kts 267°
2026-04-27 10:44 39.55459 9.60112 11100 ft 342 kts 267°
2026-04-27 10:44 39.55335 9.57084 10956 ft 331 kts 267°
2026-04-27 10:45 39.55216 9.54156 10796 ft 320 kts 267°
2026-04-27 10:45 39.55100 9.51320 10658 ft 310 kts 267°
2026-04-27 10:45 39.54988 9.48571 10533 ft 301 kts 267°
2026-04-27 10:45 39.54877 9.45901 10406 ft 293 kts 266°
2026-04-27 10:46 39.54766 9.43305 10278 ft 285 kts 266°
2026-04-27 10:46 39.54664 9.40856 10175 ft 277 kts 266°
2026-04-27 10:46 39.54562 9.38439 9891 ft 276 kts 266°
2026-04-27 10:46 39.54457 9.35964 9602 ft 275 kts 266°
2026-04-27 10:47 39.54351 9.33500 9334 ft 273 kts 266°
2026-04-27 10:47 39.54245 9.31052 9060 ft 272 kts 266°
2026-04-27 10:47 39.54138 9.28603 8780 ft 272 kts 266°
2026-04-27 10:47 39.54032 9.26161 8494 ft 271 kts 266°
2026-04-27 10:48 39.53926 9.23737 8225 ft 270 kts 266°
2026-04-27 10:48 39.53820 9.21336 7942 ft 270 kts 266°
2026-04-27 10:48 39.53714 9.18913 7704 ft 268 kts 266°
2026-04-27 10:48 39.53608 9.16535 7587 ft 261 kts 266°
2026-04-27 10:49 39.53504 9.14212 7459 ft 255 kts 266°
2026-04-27 10:49 39.53403 9.11949 7352 ft 249 kts 266°
2026-04-27 10:49 39.53303 9.09733 7225 ft 244 kts 266°
2026-04-27 10:49 39.52974 9.07644 7150 ft 233 kts 240°
2026-04-27 10:50 39.51905 9.06058 6718 ft 240 kts 217°
2026-04-27 10:50 39.50539 9.04769 6326 ft 247 kts 215°
2026-04-27 10:50 39.49134 9.03464 5968 ft 250 kts 215°
2026-04-27 10:50 39.47724 9.02152 5615 ft 248 kts 214°
2026-04-27 10:51 39.46330 9.00851 5234 ft 246 kts 214°
2026-04-27 10:51 39.44950 8.99559 4881 ft 243 kts 214°
2026-04-27 10:51 39.43601 8.98290 4542 ft 237 kts 214°
2026-04-27 10:51 39.42279 8.97050 4175 ft 232 kts 214°
2026-04-27 10:52 39.40992 8.95842 3837 ft 226 kts 214°
2026-04-27 10:52 39.39737 8.94661 3507 ft 220 kts 214°
2026-04-27 10:52 39.38511 8.93516 3202 ft 215 kts 213°
2026-04-27 10:52 39.37185 8.92761 2871 ft 207 kts 182°
2026-04-27 10:53 39.35837 8.93182 2625 ft 198 kts 152°
2026-04-27 10:53 39.33740 8.95383 2055 ft 193 kts 138°
2026-04-27 10:53 39.32756 8.96542 1781 ft 190 kts 137°
2026-04-27 10:54 39.31788 8.97690 1520 ft 187 kts 138°
2026-04-27 10:54 39.30855 8.98785 1284 ft 176 kts 138°
2026-04-27 10:54 39.29980 8.99812 1060 ft 164 kts 139°
2026-04-27 10:54 39.29177 9.00746 869 ft 150 kts 139°
2026-04-27 10:55 39.28402 9.01646 667 ft 149 kts 140°
2026-04-27 10:55 39.27644 9.02542 469 ft 148 kts 140°
2026-04-27 10:55 39.26883 9.03427 268 ft 147 kts 140°
2026-04-27 10:55 39.26120 9.04304 55 ft 145 kts 140°
2026-04-27 10:56 39.25442 9.05088 14 ft 102 kts 138°
2026-04-27 10:56 39.25109 9.05475 14 ft 28 kts 138°
2026-04-27 10:56 39.25054 9.05613 16 ft 18 kts 68°
2026-04-27 10:56 39.25111 9.05747 14 ft 11 kts 60°
2026-04-27 10:57 39.25113 9.05751 14 ft 0 kts 61°
2026-04-27 10:57 39.26909 9.03397 277 ft 147 kts 140°
2026-04-27 10:57 39.26148 9.04272 60 ft 146 kts 140°
2026-04-27 10:57 39.25461 9.05066 14 ft 103 kts 138°
2026-04-27 10:58 39.26887 9.03422 270 ft 147 kts 140°
2026-04-27 10:58 39.26126 9.04297 54 ft 145 kts 140°
2026-04-27 10:58 39.25445 9.05085 14 ft 102 kts 138°
2026-04-27 10:58 39.25110 9.05473 14 ft 28 kts 138°
2026-04-27 10:59 39.25054 9.05612 16 ft 17 kts 69°
2026-04-27 10:59 39.25111 9.05747 14 ft 12 kts 60°
2026-04-27 10:59 39.26481 9.03886 155 ft 147 kts 141°
2026-04-27 11:00 39.25675 9.04819 16 ft 128 kts 138°
2026-04-27 11:00 39.25195 9.05375 14 ft 58 kts 138°
2026-04-27 11:00 39.25053 9.05551 15 ft 18 kts 116°
2026-04-27 11:00 39.25089 9.05697 15 ft 17 kts 61°
2026-04-27 11:01 39.25113 9.05751 14 ft 0 kts 61°
2026-04-27 11:03 39.26071 9.04362 46 ft 145 kts 140°
2026-04-27 11:03 39.25852 9.04614 17 ft 141 kts 139°
2026-04-27 11:03 39.25861 9.04604 17 ft 122 kts 139°
2026-04-27 11:04 39.26186 9.04227 65 ft 143 kts 140°
2026-04-27 11:04 39.26208 9.04201 88 ft 146 kts 140°
2026-04-27 11:04 39.25507 9.05013 14 ft 111 kts 138°
2026-04-27 11:04 39.25128 9.05452 14 ft 35 kts 138°
2026-04-27 11:05 39.25113 9.05751 14 ft 0 kts 61°
2026-04-27 11:05 39.25131 9.05793 14 ft 11 kts 60°
2026-04-27 11:05 39.25197 9.05839 14 ft 13 kts 340°
2026-04-27 11:05 39.25250 9.05870 14 ft 0 kts 51°